1484892001.2,39255,5.94,74132.5,-7.83,-36.25,-36.73,0,*57
1484892002.46,39256,6.0,74128.5,-7.85,-36.07,-36.61,0,*51
1484892003.7,39257,6.0,74134.3,-7.85,-36.01,-36.43,0,*56
1484892004.93,39258,6.0,74136.5,-7.85,-35.77,-36.19,0,*54
1484892006.18,39259,6.0,74140.3,-7.89,-35.83,-36.01,0,*5B
1484892007.41,39260,6.0,74142.5,-7.89,-35.53,-35.89,0,*5F
1484892008.63,39261,6.0,74136.8,-7.83,-35.59,-36.01,0,*5D
1484892009.85,39262,6.0,74132.0,-7.83,-35.77,-36.19,0,*5B
1484892011.09,39263,6.0,74138.5,-7.83,-35.95,-36.43,0,*59
1484892012.31,39264,6.0,74140.0,-7.83,-35.77,-36.19,0,*5D
1484892013.55,39265,6.0,74138.8,-7.83,-35.41,-35.77,0,*52
1484892014.79,39266,5.94,74140.3,-7.83,-35.65,-36.19,0,*5C
1484892016.05,39267,6.0,74136.5,-7.83,-35.95,-36.37,0,*5E
1484892017.29,39268,6.0,74128.8,-7.83,-36.01,-36.37,0,*5F
1484892018.51,39269,6.0,74130.3,-7.83,-36.07,-36.55,0,*5C
1484892019.74,39270,6.0,74136.3,-7.83,-36.01,-36.55,0,*52
1484892020.95,39271,6.0,74142.5,-7.83,-36.01,-36.43,0,*54
1484892022.22,39272,5.94,74130.0,-7.83,-35.95,-36.37,0,*5A
1484892023.47,39273,5.94,74126.0,-7.83,-35.77,-36.25,0,*54
1484892024.73,39274,6.0,74128.3,-7.81,-35.41,-35.77,0,*50
1484892025.98,39275,6.0,74128.5,-7.83,-35.47,-35.95,0,*59
1484892027.25,39276,6.0,74134.3,-7.81,-35.71,-35.95,0,*5D
1484892028.52,39277,6.0,74128.8,-7.83,-35.65,-35.95,0,*5B
1484892029.76,39278,6.0,74134.3,-7.81,-35.77,-36.19,0,*52
1484892030.98,39279,6.0,74134.5,-7.83,-36.07,-36.55,0,*5D
1484892032.25,39280,6.0,74134.0,-7.81,-35.95,-36.31,0,*53
1484892033.54,39281,6.0,74136.5,-7.81,-35.95,-36.49,0,*5D
1484892034.75,39282,6.0,74138.0,-7.83,-36.01,-36.43,0,*58
1484892036.03,39283,6.0,74138.3,-7.83,-35.95,-36.25,0,*57
1484892037.25,39284,6.0,74132.5,-7.83,-35.89,-36.31,0,*58
1484892038.51,39285,6.0,74134.5,-7.81,-36.01,-36.49,0,*57
1484892039.73,39286,6.0,74136.3,-7.83,-36.07,-36.55,0,*5D
1484892040.97,39287,5.94,74128.0,-7.81,-35.89,-36.31,0,*59
1484892042.24,39288,6.0,74134.0,-7.83,-35.83,-36.25,0,*5B
1484892043.53,39289,6.0,74132.8,-7.81,-35.95,-36.49,0,*55
1484892044.8,39290,6.0,74134.8,-7.83,-35.95,-36.37,0,*56
1484892046.02,39291,6.0,74142.3,-7.83,-36.01,-36.55,0,*5D
1484892047.24,39292,6.0,74142.3,-7.83,-36.01,-36.55,0,*5E
1484892048.48,39293,6.0,74142.0,-7.83,-36.19,-36.61,0,*51
1484892049.72,39294,6.0,74146.5,-7.83,-36.43,-36.79,0,*50
1484892050.97,39295,6.0,74150.0,-7.83,-36.37,-36.73,0,*58
1484892052.21,39296,6.0,74142.8,-7.83,-36.25,-36.73,0,*58
1484892053.46,39297,6.0,74138.5,-7.83,-36.25,-36.73,0,*59
1484892054.72,39298,6.0,74136.8,-7.85,-36.19,-36.61,0,*5C
1484892056.01,39299,5.94,74132.8,-7.85,-36.25,-36.61,0,*52
1484892057.23,39300,6.0,74132.8,-7.83,-36.01,-36.55,0,*54
1484892058.48,39301,6.0,74130.5,-7.83,-36.25,-36.73,0,*57
1484892059.76,39302,6.0,74130.5,-7.81,-35.95,-36.49,0,*57
1484892061.06,39303,6.0,74128.8,-7.85,-35.95,-36.25,0,*58
1484892062.32,39304,6.0,74138.8,-7.85,-35.65,-36.01,0,*56
1484892063.61,39305,6.0,74140.0,-7.85,-35.83,-36.25,0,*59
1484892064.87,39306,6.0,74136.5,-7.85,-36.01,-36.37,0,*50
1484892066.11,39307,6.0,74134.0,-7.85,-35.77,-36.19,0,*5F
1484892067.34,39308,6.0,74136.0,-7.85,-35.77,-36.19,0,*50
1484892068.63,39309,6.0,74136.8,-7.85,-35.95,-36.37,0,*51
1484892069.87,39310,6.0,74132.8,-7.85,-36.07,-36.55,0,*55
1484892071.12,39311,6.0,74134.8,-7.83,-36.25,-36.73,0,*56
1484892072.37,39312,6.0,74138.8,-7.83,-36.25,-36.73,0,*55
1484892073.63,39313,6.0,74136.5,-7.83,-36.25,-36.79,0,*5E
1484892074.92,39314,6.0,74138.0,-7.85,-36.25,-36.61,0,*56
1484892076.18,39315,6.0,74140.5,-7.85,-36.07,-36.61,0,*57
1484892077.48,39316,6.0,74138.5,-7.85,-35.95,-36.25,0,*5C
1484892078.72,39317,6.0,74140.3,-7.85,-36.01,-36.55,0,*54
1484892079.96,39318,6.0,74140.0,-7.85,-36.07,-36.55,0,*5D
1484892081.21,39319,6.0,74136.5,-7.85,-36.07,-36.55,0,*5C
1484892082.44,39320,6.0,74136.8,-7.89,-36.01,-36.61,0,*5B
1484892083.7,39321,6.0,74142.0,-7.85,-35.83,-36.19,0,*50
1484892084.94,39322,6.0,74140.5,-7.85,-36.19,-36.55,0,*5B
1484892086.15,39323,6.0,74140.5,-7.89,-36.31,-36.85,0,*51
1484892087.41,39324,5.94,74136.0,-7.85,-36.43,-36.79,0,*5C
1484892088.64,39325,6.0,74140.8,-7.89,-36.49,-36.85,0,*58
1484892089.87,39326,6.0,74138.5,-7.89,-36.49,-36.85,0,*5B
1484892091.1,39327,6.0,74140.3,-7.89,-36.49,-36.97,0,*59
1484892092.33,39328,6.0,74138.5,-7.89,-36.49,-36.97,0,*56
1484892093.59,39329,6.0,74144.3,-7.85,-36.43,-36.79,0,*51
1484892094.82,39330,6.0,74140.8,-7.89,-36.61,-36.97,0,*55
1484892096.08,39331,6.0,74142.3,-7.91,-36.31,-36.79,0,*58
1484892097.34,39332,6.0,74140.0,-7.89,-36.13,-36.61,0,*5B
1484892098.6,39333,6.0,74144.3,-7.91,-36.61,-36.97,0,*5F
1484892099.83,39334,5.94,74140.8,-7.91,-36.43,-36.85,0,*5B
1484892101.06,39335,6.0,74140.5,-7.91,-36.43,-36.85,0,*5A
1484892102.29,39336,6.0,74146.3,-7.91,-36.43,-36.85,0,*59
1484892103.55,39337,6.0,74144.8,-7.91,-36.49,-36.85,0,*52
1484892104.81,39338,6.0,74150.3,-7.91,-36.49,-36.97,0,*5E
1484892106.07,39339,6.0,74148.0,-7.91,-36.49,-37.03,0,*53
1484892107.3,39340,6.0,74144.0,-7.93,-36.31,-36.91,0,*5A
1484892108.53,39341,6.0,74138.3,-7.93,-36.37,-36.73,0,*51
1484892109.77,39342,6.0,74136.0,-7.93,-35.71,-35.95,0,*58
1484892111.0,39343,6.0,74134.8,-7.91,-35.71,-36.07,0,*53
1484892112.23,39344,6.0,74136.3,-7.93,-35.35,-35.71,0,*54
1484892113.49,39345,6.0,74142.8,-7.91,-35.01,-35.53,0,*50
1484892114.75,39346,6.0,74136.5,-7.91,-35.13,-35.53,0,*50
1484892116.01,39347,6.0,74132.8,-7.91,-35.53,-36.01,0,*51
1484892117.25,39348,6.0,74134.3,-7.91,-35.29,-35.71,0,*57
1484892118.53,39349,6.0,74136.8,-7.91,-35.53,-35.83,0,*56
1484892119.76,39350,6.0,74130.0,-7.89,-35.47,-35.83,0,*52
1484892120.97,39351,5.94,74130.3,-7.89,-35.71,-36.07,0,*59
1484892122.18,39352,6.0,74138.5,-7.89,-35.47,-35.71,0,*5D
1484892123.41,39353,6.0,74136.5,-7.89,-35.65,-35.89,0,*5B
1484892124.65,39354,6.0,74132.0,-7.85,-36.01,-36.19,0,*5B
1484892125.89,39355,6.0,74134.5,-7.85,-36.07,-36.55,0,*54
1484892127.15,39356,6.0,74140.0,-7.85,-36.19,-36.61,0,*5F
1484892128.36,39357,6.0,74138.5,-7.89,-36.31,-36.67,0,*5E
1484892129.6,39358,6.0,74138.8,-7.85,-36.01,-36.43,0,*58
1484892130.86,39359,6.0,74140.0,-7.89,-36.13,-36.61,0,*56
1484892132.12,39360,6.0,74142.3,-7.89,-36.25,-36.61,0,*59
1484892133.38,39361,6.0,74142.8,-7.91,-36.25,-36.67,0,*57
1484892134.64,39362,6.0,74142.8,-7.91,-36.13,-36.67,0,*51
1484892135.92,39363,6.0,74140.3,-7.91,-36.13,-36.49,0,*5C
1484892137.16,39364,6.0,74140.0,-7.91,-36.31,-36.67,0,*57
1484892138.37,39365,6.0,74146.8,-7.93,-36.31,-36.73,0,*51
1484892139.6,39366,6.0,74140.3,-7.93,-36.37,-36.73,0,*54
1484892140.81,39367,6.0,74140.3,-7.93,-36.31,-36.73,0,*53
1484892142.02,39368,6.0,74138.5,-7.93,-36.19,-36.73,0,*56
1484892143.25,39369,6.0,74136.3,-7.93,-36.37,-36.73,0,*5B
1484892144.47,39370,5.94,74136.3,-7.93,-36.37,-36.85,0,*5A
1484892145.7,39371,6.0,74142.3,-7.93,-36.37,-36.85,0,*5B
1484892146.93,39372,6.0,74140.3,-7.93,-36.37,-36.73,0,*51
1484892148.16,39373,6.0,74142.0,-7.93,-36.37,-36.73,0,*50
1484892149.37,39374,6.0,74140.8,-7.93,-36.19,-36.67,0,*5E
1484892150.58,39375,6.0,74144.5,-7.93,-36.31,-36.67,0,*55
1484892151.82,39376,6.0,74142.3,-7.95,-36.19,-36.67,0,*5A
1484892153.1,39377,6.0,74144.5,-7.95,-35.95,-36.37,0,*59
1484892154.35,39378,6.0,74140.5,-7.95,-36.07,-36.37,0,*5E
1484892155.59,39379,6.0,74140.0,-7.95,-36.07,-36.55,0,*5B
1484892156.82,39380,6.0,74142.3,-7.95,-36.19,-36.67,0,*53
1484892158.08,39381,6.0,74140.0,-7.95,-36.13,-36.55,0,*59
1484892159.3,39382,6.0,74144.5,-7.97,-36.19,-36.67,0,*53
1484892160.53,39383,6.0,74140.3,-7.95,-36.31,-36.67,0,*5A
1484892161.79,39384,6.0,74146.3,-7.95,-36.37,-36.85,0,*57
1484892163.04,39385,6.0,74144.5,-7.95,-36.37,-36.85,0,*56
1484892164.3,39386,6.0,74144.8,-7.95,-36.55,-36.91,0,*54
1484892165.58,39387,6.0,74144.5,-7.95,-36.49,-36.91,0,*58
1484892166.86,39388,6.0,74142.3,-7.95,-36.49,-36.91,0,*57
1484892168.09,39389,6.0,74144.0,-7.97,-36.43,-36.79,0,*58
1484892169.3,39390,6.0,74140.5,-7.97,-36.01,-36.43,0,*5F
1484892170.54,39391,6.0,74140.0,-7.99,-36.31,-36.85,0,*59
1484892171.77,39392,6.0,74144.5,-7.99,-36.43,-36.85,0,*5F
1484892173.01,39393,6.0,74140.0,-7.99,-36.31,-36.85,0,*5B
1484892174.3,39394,6.0,74140.3,-7.99,-36.25,-36.49,0,*59
1484892175.51,39395,6.0,74144.5,-8.01,-36.19,-36.67,0,*55
1484892176.75,39396,6.0,74142.0,-7.99,-36.01,-36.43,0,*57
1484892177.99,39397,6.0,74140.5,-7.99,-36.07,-36.43,0,*50
1484892179.26,39398,6.0,74144.8,-7.99,-36.07,-36.25,0,*5F
1484892180.52,39399,6.0,74142.3,-7.99,-36.19,-36.61,0,*51
1484892181.76,39400,6.0,74146.3,-8.01,-36.01,-36.25,0,*51
1484892183.0,39401,6.0,74144.8,-7.99,-35.89,-36.19,0,*52
1484892184.24,39402,6.0,74142.8,-7.99,-36.19,-36.43,0,*54
1484892185.5,39403,6.0,74144.8,-7.99,-36.07,-36.49,0,*50
1484892186.74,39404,6.0,74146.0,-7.99,-36.19,-36.67,0,*54
1484892188.0,39405,6.0,74144.8,-7.99,-36.31,-36.79,0,*50
1484892189.27,39406,6.0,74146.3,-7.99,-36.01,-36.25,0,*59
1484892190.51,39407,6.0,74148.0,-7.99,-35.89,-36.19,0,*54
1484892191.74,39408,6.0,74146.3,-7.99,-35.89,-36.19,0,*5B
1484892192.99,39409,6.0,74144.3,-7.99,-36.19,-36.67,0,*59
1484892194.25,39410,6.0,74148.5,-7.99,-35.83,-36.07,0,*57
1484892195.48,39411,6.0,74144.0,-7.99,-36.01,-36.19,0,*50
1484892196.75,39412,6.0,74144.8,-7.99,-36.07,-36.49,0,*50
1484892197.99,39413,5.94,74146.0,-7.99,-36.07,-36.43,0,*5B
1484892199.25,39414,6.0,74150.8,-7.99,-36.19,-36.61,0,*53
1484892200.52,39415,6.0,74146.0,-7.99,-36.01,-36.25,0,*5B
1484892201.76,39416,6.0,74148.3,-7.99,-36.01,-36.43,0,*58
1484892202.99,39417,6.0,74146.0,-7.99,-35.89,-36.19,0,*55
1484892204.26,39418,6.0,74146.0,-7.99,-36.01,-36.25,0,*56
1484892205.52,39419,6.0,74148.5,-7.97,-35.83,-36.13,0,*55
1484892206.76,39420,6.0,74148.3,-7.99,-35.89,-36.19,0,*51
1484892208.0,39421,6.0,74148.0,-7.99,-36.07,-36.43,0,*5A
1484892209.26,39422,6.0,74146.0,-7.99,-36.07,-36.49,0,*53
1484892210.5,39423,6.0,74146.8,-7.99,-36.01,-36.19,0,*51
1484892211.74,39424,6.0,74146.8,-7.99,-36.01,-36.43,0,*59
1484892212.95,39425,6.0,74146.0,-8.01,-35.89,-36.19,0,*5A
1484892214.19,39426,6.0,74150.0,-7.99,-35.89,-36.19,0,*57
1484892215.42,39427,5.94,74144.3,-7.99,-36.01,-36.19,0,*55
1484892216.68,39428,5.94,74142.8,-7.99,-36.19,-36.49,0,*56
1484892217.92,39429,6.0,74140.3,-7.99,-36.01,-36.43,0,*54
1484892219.16,39430,6.0,74142.5,-8.01,-36.01,-36.25,0,*52
1484892220.41,39431,6.0,74144.0,-7.99,-36.07,-36.43,0,*5B
1484892221.66,39432,6.0,74140.8,-7.99,-35.53,-35.71,0,*58
1484892222.92,39433,6.0,74146.5,-7.99,-35.35,-35.71,0,*59
1484892224.16,39434,6.0,74142.5,-7.99,-35.71,-36.01,0,*5A
1484892225.44,39435,6.0,74140.0,-7.99,-35.83,-36.01,0,*56
1484892226.7,39436,6.0,74138.5,-7.99,-35.65,-35.89,0,*5E
1484892227.95,39437,6.0,74136.3,-7.99,-35.71,-36.01,0,*59
1484892229.18,39438,6.0,74138.5,-7.97,-35.65,-36.01,0,*5D
1484892230.42,39439,6.0,74136.0,-7.97,-35.83,-36.19,0,*5D
1484892231.66,39440,6.0,74136.5,-7.97,-35.71,-35.95,0,*59
1484892232.89,39441,6.0,74136.0,-7.99,-36.19,-36.43,0,*53
1484892234.16,39442,6.0,74138.8,-7.99,-36.07,-36.25,0,*5F
1484892235.4,39443,6.0,74142.3,-7.97,-35.83,-36.19,0,*50
1484892236.66,39444,6.0,74136.0,-7.99,-35.83,-36.07,0,*56
1484892237.89,39445,5.94,74138.3,-7.97,-36.01,-36.37,0,*53
1484892239.1,39446,5.94,74140.3,-7.97,-36.01,-36.19,0,*5C
1484892240.33,39447,6.0,74140.5,-7.97,-35.83,-36.19,0,*54
1484892241.59,39448,6.0,74140.3,-7.97,-35.83,-36.13,0,*51
1484892242.82,39449,6.0,74140.0,-7.95,-35.89,-36.31,0,*58
1484892244.06,39450,6.0,74136.8,-7.97,-36.07,-36.37,0,*51
1484892245.32,39451,6.0,74138.3,-7.99,-36.19,-36.49,0,*58
1484892246.56,39452,6.0,74136.0,-7.95,-36.07,-36.55,0,*55
1484892247.8,39453,6.0,74140.0,-7.99,-36.01,-36.43,0,*59
1484892249.03,39454,6.0,74136.0,-7.99,-35.71,-36.19,0,*55
1484892250.29,39455,5.94,74138.0,-7.99,-35.83,-36.07,0,*56
1484892251.54,39456,6.0,74146.8,-7.99,-36.07,-36.43,0,*5A
1484892252.8,39457,5.94,74140.3,-7.99,-35.89,-36.25,0,*5E
1484892254.09,39458,5.94,74138.3,-7.99,-36.25,-36.61,0,*54
1484892255.36,39459,6.0,74140.8,-7.99,-35.89,-36.25,0,*50
1484892256.62,39460,5.94,74136.8,-7.99,-35.35,-35.71,0,*5F
1484892257.84,39461,6.0,74142.3,-7.97,-35.47,-35.77,0,*53
1484892259.07,39462,6.0,74142.5,-7.99,-36.01,-36.19,0,*54
1484892260.34,39463,5.94,74140.5,-7.99,-35.65,-36.01,0,*5D
1484892261.6,39464,5.94,74140.3,-7.99,-35.83,-36.07,0,*54
1484892262.87,39465,6.0,74140.8,-7.99,-36.07,-36.49,0,*50
1484892264.13,39466,6.0,74140.8,-7.99,-35.83,-36.07,0,*56
1484892265.37,39467,6.0,74144.3,-7.97,-35.77,-36.13,0,*57
1484892266.61,39468,5.94,74138.5,-7.99,-35.71,-36.01,0,*53
1484892267.85,39469,6.0,74142.5,-7.97,-35.83,-36.01,0,*51
1484892269.08,39470,6.0,74140.8,-7.97,-36.01,-36.37,0,*55
1484892270.32,39471,5.94,74138.8,-7.97,-35.59,-35.83,0,*56
1484892271.56,39472,6.0,74140.3,-7.97,-35.77,-35.95,0,*5E
1484892272.8,39473,6.0,74142.3,-7.97,-35.77,-35.83,0,*58
1484892274.02,39474,5.94,74138.0,-7.97,-35.59,-35.77,0,*58
1484892275.27,39475,6.0,74142.5,-7.97,-36.13,-36.37,0,*53
1484892276.48,39476,6.0,74142.8,-7.97,-36.01,-36.43,0,*50
1484892277.71,39477,6.0,74142.3,-7.97,-35.83,-36.19,0,*57
1484892278.95,39478,6.0,74142.3,-7.99,-36.19,-36.43,0,*59
1484892280.18,39479,6.0,74142.8,-7.95,-36.07,-36.31,0,*5E
1484892281.43,39480,6.0,74144.0,-7.97,-36.13,-36.37,0,*59
1484892282.67,39481,5.94,74142.0,-7.95,-35.77,-36.07,0,*58
1484892283.9,39482,6.0,74142.8,-7.97,-35.47,-35.65,0,*5D
1484892285.11,39483,6.0,74144.5,-7.97,-35.59,-35.77,0,*50
1484892286.35,39484,6.0,74142.0,-7.97,-35.77,-35.83,0,*50
1484892287.59,39485,6.0,74140.5,-7.99,-35.89,-36.19,0,*5E
1484892288.83,39486,5.94,74136.3,-7.97,-35.77,-36.13,0,*58
1484892290.06,39487,6.0,74142.5,-7.97,-35.83,-36.19,0,*58
1484892291.27,39488,6.0,74142.5,-7.97,-35.89,-36.07,0,*52
1484892292.51,39489,6.0,74140.5,-7.97,-35.47,-35.83,0,*5E
1484892293.74,39490,6.0,74140.0,-7.97,-35.23,-35.59,0,*53
1484892294.98,39491,6.0,74140.5,-7.99,-36.01,-36.43,0,*57
1484892296.18,39492,5.94,74138.8,-7.97,-36.01,-36.19,0,*55
1484892297.45,39493,6.0,74138.3,-7.97,-35.65,-35.95,0,*52
1484892298.69,39494,6.0,74142.5,-7.95,-35.53,-35.71,0,*58
1484892299.91,39495,5.94,74136.0,-7.97,-35.59,-35.77,0,*57
1484892301.13,39496,5.94,74138.3,-7.97,-35.59,-35.65,0,*57
1484892302.37,39497,5.94,74136.0,-7.95,-35.59,-35.77,0,*57
1484892303.61,39498,6.0,74140.5,-7.97,-35.95,-36.19,0,*51
1484892304.85,39499,6.0,74140.5,-7.97,-35.77,-35.95,0,*5B
1484892306.1,39500,5.94,74138.8,-7.97,-35.77,-35.95,0,*5A
1484892307.36,39501,6.0,74136.5,-7.95,-35.71,-35.95,0,*5F
1484892308.6,39502,6.0,74140.8,-7.97,-35.95,-36.19,0,*53
1484892309.8,39503,6.0,74140.8,-7.97,-36.01,-36.19,0,*5C
1484892311.04,39504,6.0,74142.0,-7.97,-35.83,-36.19,0,*52
1484892312.3,39505,6.0,74140.5,-7.97,-35.95,-36.13,0,*5E
1484892313.51,39506,6.0,74136.8,-7.97,-36.01,-36.01,0,*50
1484892314.77,39507,6.0,74140.0,-7.95,-36.07,-36.13,0,*56
1484892316.0,39508,5.94,74138.0,-7.95,-35.89,-36.31,0,*5C
1484892317.22,39509,6.0,74140.8,-7.97,-35.59,-35.77,0,*53
1484892318.45,39510,5.94,74138.5,-7.97,-35.95,-36.19,0,*50
1484892319.68,39511,6.0,74136.0,-7.97,-36.07,-36.37,0,*55
1484892320.91,39512,6.0,74136.3,-7.97,-36.13,-36.43,0,*50
1484892322.14,39513,5.94,74138.5,-7.97,-36.01,-36.37,0,*51
1484892323.36,39514,6.0,74138.5,-7.97,-35.77,-36.01,0,*51
1484892324.6,39515,6.0,74140.5,-7.97,-35.83,-36.01,0,*5B
1484892325.84,39516,6.0,74138.8,-7.97,-35.59,-35.83,0,*56
1484892327.09,39517,6.0,74138.0,-7.97,-35.77,-35.95,0,*5C
1484892328.34,39518,5.94,74132.8,-7.97,-35.95,-36.37,0,*54
1484892329.55,39519,5.94,74136.3,-7.97,-36.01,-36.19,0,*57
1484892330.79,39520,6.0,74136.3,-7.97,-35.59,-35.83,0,*53
1484892332.05,39521,6.0,74138.8,-7.97,-35.95,-36.13,0,*58
1484892333.28,39522,6.0,74140.0,-7.95,-35.89,-36.31,0,*54
1484892334.49,39523,5.94,74136.0,-7.97,-36.01,-36.19,0,*5E
1484892335.72,39524,6.0,74138.8,-7.95,-35.77,-36.07,0,*56
1484892336.98,39525,5.94,74136.3,-7.99,-36.19,-36.61,0,*50
1484892338.22,39526,6.0,74142.3,-7.99,-35.29,-35.71,0,*51
1484892339.49,39527,5.94,74140.3,-7.99,-35.29,-35.65,0,*55
1484892340.74,39528,6.0,74144.0,-7.97,-35.65,-35.83,0,*54
1484892341.97,39529,5.94,74140.3,-7.95,-35.89,-36.07,0,*5A
1484892343.21,39530,5.94,74142.8,-7.99,-36.07,-36.07,0,*5B
1484892344.47,39531,6.0,74136.5,-7.97,-35.65,-35.83,0,*5C
1484892345.71,39532,6.0,74136.0,-7.97,-35.77,-35.95,0,*5B
1484892346.98,39533,6.0,74136.8,-7.95,-35.77,-35.95,0,*58
1484892348.22,39534,6.0,74138.8,-7.97,-35.59,-35.95,0,*51
1484892349.47,39535,6.0,74142.0,-7.97,-35.41,-35.65,0,*56
1484892350.71,39536,6.0,74138.0,-7.97,-35.77,-36.13,0,*52
1484892351.94,39537,5.94,74134.5,-7.97,-36.01,-36.37,0,*57
1484892353.18,39538,5.94,74136.3,-7.99,-36.01,-36.19,0,*5A
1484892354.46,39539,5.94,74134.8,-7.99,-35.53,-35.83,0,*5F
1484892355.73,39540,6.0,74136.8,-7.99,-35.83,-36.01,0,*55
1484892356.97,39541,5.94,74136.5,-7.97,-35.83,-36.01,0,*5A
1484892358.2,39542,5.94,74138.3,-7.97,-35.47,-35.65,0,*50
1484892359.44,39543,6.0,74138.5,-7.97,-35.59,-35.83,0,*56
1484892360.66,39544,5.94,74136.0,-7.97,-35.77,-36.01,0,*54
1484892361.89,39545,6.0,74140.5,-7.97,-35.59,-35.65,0,*58
1484892363.14,39546,6.0,74140.5,-7.95,-35.35,-35.59,0,*5C
1484892364.37,39547,5.94,74142.0,-7.97,-35.41,-35.59,0,*5C
1484892365.6,39548,6.0,74142.8,-7.97,-35.59,-35.83,0,*5D
1484892366.87,39549,5.94,74138.0,-7.95,-35.71,-35.95,0,*53
1484892368.08,39550,6.0,74142.3,-7.97,-36.01,-36.43,0,*55
1484892369.33,39551,6.0,74138.8,-7.97,-35.65,-35.83,0,*5A
1484892370.59,39552,5.94,74138.5,-7.97,-35.65,-35.83,0,*59
1484892371.85,39553,6.0,74138.3,-7.95,-35.41,-35.77,0,*57
1484892373.13,39554,6.0,74136.5,-7.95,-35.23,-35.53,0,*52
1484892374.34,39555,5.94,74138.3,-7.97,-35.71,-36.07,0,*54
1484892375.57,39556,5.94,74136.3,-7.97,-36.01,-36.37,0,*50
1484892376.81,39557,6.0,74138.0,-7.97,-35.83,-36.01,0,*5D
1484892378.02,39558,6.0,74136.8,-7.97,-35.59,-35.77,0,*57
1484892379.26,39559,6.0,74140.5,-7.97,-35.77,-36.13,0,*5B
1484892380.47,39560,6.0,74140.0,-7.97,-35.77,-36.07,0,*54
1484892381.73,39561,6.0,74140.5,-7.97,-35.83,-36.13,0,*5B
1484892383.0,39562,5.94,74136.0,-7.95,-35.77,-35.95,0,*5C
1484892384.2,39563,5.94,74138.8,-7.97,-36.01,-36.19,0,*5A
1484892385.46,39564,5.94,74136.8,-7.97,-35.95,-36.37,0,*5F
1484892386.68,39565,6.0,74140.3,-7.97,-35.77,-36.01,0,*57
1484892387.89,39566,6.0,74136.8,-7.97,-35.59,-35.77,0,*5A
1484892389.13,39567,6.0,74140.8,-7.97,-35.65,-36.01,0,*56
1484892390.36,39568,6.0,74140.8,-7.95,-35.89,-36.07,0,*5F
1484892391.59,39569,5.94,74136.5,-7.97,-35.95,-36.19,0,*5E
1484892392.85,39570,6.0,74140.5,-7.97,-35.83,-36.13,0,*5B
1484892394.07,39571,6.0,74140.0,-7.97,-35.77,-36.01,0,*52
1484892395.31,39572,6.0,74138.8,-7.97,-35.95,-36.19,0,*54
1484892396.53,39573,5.94,74138.3,-7.97,-35.77,-36.01,0,*50
1484892397.78,39574,6.0,74140.8,-7.97,-35.65,-35.83,0,*5D
1484892399.04,39575,6.0,74138.0,-7.97,-35.65,-35.83,0,*5C
1484892400.28,39576,6.0,74142.0,-7.97,-35.59,-35.83,0,*50
1484892401.51,39577,5.94,74136.3,-7.97,-35.77,-36.13,0,*57
1484892402.77,39578,5.94,74138.3,-7.97,-35.95,-36.13,0,*54
1484892404.01,39579,6.0,74138.3,-7.97,-35.59,-35.83,0,*5F
1484892405.22,39580,6.0,74134.8,-7.97,-35.47,-35.77,0,*5D
1484892406.47,39581,6.0,74136.5,-7.97,-35.41,-35.65,0,*59
1484892407.75,39582,6.0,74138.8,-7.95,-35.41,-35.53,0,*5D
1484892409.0,39583,6.0,74138.8,-7.95,-35.41,-35.71,0,*5C
1484892410.21,39584,6.0,74138.5,-7.97,-35.59,-35.77,0,*56
1484892411.47,39585,6.0,74136.3,-7.95,-35.35,-35.59,0,*53
1484892412.72,39586,5.94,74136.0,-7.95,-35.41,-35.71,0,*59
1484892413.99,39587,5.94,74138.5,-7.95,-35.35,-35.65,0,*5E
1484892415.2,39588,6.0,74140.3,-7.97,-35.29,-35.59,0,*51
1484892416.45,39589,6.0,74140.0,-7.95,-35.41,-35.59,0,*5C
1484892417.71,39590,6.0,74138.8,-7.95,-35.53,-35.89,0,*5A
1484892418.98,39591,6.0,74138.3,-7.95,-35.71,-35.95,0,*56
1484892420.23,39592,6.0,74142.3,-7.95,-35.53,-35.77,0,*59
1484892421.51,39593,5.94,74142.0,-7.95,-35.23,-35.53,0,*59
1484892422.74,39594,5.94,74136.3,-7.93,-35.17,-35.41,0,*5C
1484892423.96,39595,6.0,74134.8,-7.93,-35.53,-35.71,0,*5E
1484892425.21,39596,6.0,74126.3,-7.95,-35.53,-35.71,0,*5B
1484892426.44,39597,5.94,74124.0,-7.95,-35.59,-35.77,0,*56
1484892427.68,39598,5.94,74126.8,-7.95,-35.59,-35.89,0,*58
1484892428.96,39599,5.94,74128.8,-7.95,-35.35,-35.53,0,*54
1484892430.25,39600,6.0,74132.0,-7.95,-35.07,-35.35,0,*56
1484892431.51,39601,5.94,74132.3,-7.93,-34.95,-35.07,0,*5A
1484892432.78,39602,5.94,74132.5,-7.91,-34.59,-34.95,0,*51
1484892434.02,39603,6.0,74138.0,-7.91,-34.77,-35.13,0,*53
1484892435.28,39604,6.0,74136.8,-7.93,-34.83,-35.07,0,*58
1484892436.51,39605,6.0,74138.5,-7.91,-34.89,-35.13,0,*54
1484892437.76,39606,6.0,74138.0,-7.91,-35.01,-35.29,0,*5F
1484892439.02,39607,5.94,74136.5,-7.91,-35.47,-35.53,0,*51
1484892440.25,39608,6.0,74142.5,-7.89,-35.17,-35.53,0,*52
1484892441.48,39609,6.0,74138.3,-7.89,-35.13,-35.35,0,*57
1484892442.73,39610,6.0,74138.8,-7.89,-35.53,-35.83,0,*56
1484892443.97,39611,6.0,74140.0,-7.89,-35.29,-35.53,0,*57
1484892445.2,39612,6.0,74140.0,-7.85,-35.29,-35.59,0,*52
1484892446.44,39613,6.0,74142.8,-7.89,-35.65,-35.89,0,*5A
1484892447.68,39614,6.0,74142.0,-7.89,-35.65,-35.89,0,*5D
1484892448.93,39615,6.0,74142.8,-7.89,-35.53,-35.83,0,*53
1484892450.17,39616,6.0,74140.5,-7.89,-35.89,-36.25,0,*58
1484892451.41,39617,6.0,74142.5,-7.89,-36.01,-36.25,0,*5A
1484892452.64,39618,6.0,74146.5,-7.89,-36.01,-36.61,0,*55
1484892453.88,39619,6.0,74140.5,-7.91,-35.71,-36.01,0,*5F
1484892455.12,39620,6.0,74136.8,-7.89,-36.01,-36.25,0,*5E
1484892456.38,39621,6.0,74142.5,-7.91,-35.83,-36.07,0,*5F
1484892457.66,39622,6.0,74142.3,-7.91,-35.53,-35.83,0,*5E
1484892458.9,39623,6.0,74140.5,-7.91,-35.71,-36.01,0,*56
1484892460.17,39624,6.0,74140.0,-7.91,-35.65,-35.89,0,*57
1484892461.41,39625,6.0,74140.8,-7.91,-35.71,-35.89,0,*53
1484892462.67,39626,6.0,74144.3,-7.91,-35.47,-35.53,0,*52
1484892463.93,39627,6.0,74140.8,-7.91,-35.47,-35.65,0,*56
1484892465.21,39628,6.0,74140.5,-7.91,-35.35,-35.65,0,*5C
1484892466.47,39629,6.0,74140.3,-7.91,-35.29,-35.53,0,*55
1484892467.71,39630,6.0,74144.3,-7.91,-35.29,-35.47,0,*58
1484892468.96,39631,6.0,74146.3,-7.89,-35.35,-35.65,0,*5D
1484892470.21,39632,6.0,74146.0,-7.89,-35.53,-35.65,0,*5E
1484892471.45,39633,6.0,74144.8,-7.89,-35.47,-35.83,0,*52
1484892472.69,39634,6.0,74146.0,-7.89,-35.01,-35.35,0,*5A
1484892473.92,39635,6.0,74148.3,-7.85,-35.29,-35.59,0,*57
1484892475.18,39636,6.0,74148.3,-7.89,-35.53,-35.83,0,*52
1484892476.39,39637,6.0,74146.8,-7.89,-35.71,-36.01,0,*5A
1484892477.65,39638,6.0,74150.8,-7.89,-35.65,-35.83,0,*59
1484892478.9,39639,6.0,74150.0,-7.89,-35.65,-35.83,0,*58
1484892480.14,39640,6.0,74150.3,-7.89,-35.65,-35.89,0,*5C
1484892481.43,39641,6.0,74156.0,-7.85,-35.65,-35.83,0,*5B
1484892482.67,39642,6.0,74154.0,-7.85,-35.47,-35.77,0,*53
1484892483.91,39643,6.0,74150.5,-7.85,-35.47,-35.77,0,*52
1484892485.17,39644,6.0,74146.3,-7.89,-35.65,-35.83,0,*52
1484892486.43,39645,6.0,74148.0,-7.89,-35.65,-35.83,0,*53
1484892487.63,39646,6.0,74146.0,-7.89,-35.47,-35.71,0,*5D
1484892488.89,39647,6.0,74150.0,-7.89,-35.35,-35.53,0,*59
1484892490.11,39648,6.0,74150.0,-7.83,-35.29,-35.47,0,*54
1484892491.4,39649,6.0,74148.8,-7.85,-35.23,-35.53,0,*5C
1484892492.68,39650,6.0,74150.8,-7.85,-34.83,-35.07,0,*5E
1484892493.96,39651,6.0,74148.8,-7.85,-35.07,-35.29,0,*5E
1484892495.19,39652,6.0,74152.3,-7.85,-35.29,-35.59,0,*56
1484892496.48,39653,6.0,74156.3,-7.85,-35.23,-35.65,0,*52
1484892497.73,39654,6.0,74150.3,-7.83,-35.41,-35.65,0,*57
1484892498.96,39655,6.0,74152.3,-7.83,-35.47,-35.77,0,*53
1484892500.18,39656,6.0,74150.3,-7.83,-35.47,-35.77,0,*50
1484892501.42,39657,6.0,74146.3,-7.85,-35.47,-35.77,0,*57
1484892502.65,39658,6.0,74144.3,-7.83,-35.77,-36.01,0,*5F
1484892503.88,39659,6.0,74144.0,-7.83,-35.65,-36.19,0,*54
1484892505.15,39660,6.0,74150.8,-7.85,-35.83,-36.01,0,*59
1484892506.39,39661,6.0,74148.0,-7.85,-35.77,-36.19,0,*5A
1484892507.68,39662,6.0,74142.3,-7.85,-35.65,-35.95,0,*5D
1484892508.93,39663,5.94,74134.0,-7.85,-35.77,-36.01,0,*51
1484892510.17,39664,6.0,74136.5,-7.83,-35.59,-35.95,0,*52
1484892511.45,39665,6.0,74134.3,-7.85,-35.77,-35.95,0,*59
1484892512.71,39666,6.0,74132.5,-7.83,-35.65,-35.83,0,*58
1484892513.98,39667,6.0,74128.0,-7.85,-35.47,-35.95,0,*58